Tracking 19720 objects as of 27-Jun-2019
HD Live streaming from Space Station
objects crossing your sky now

WESTFORD NEEDLES

Track WESTFORD NEEDLES now!
10-day predictions
WESTFORD NEEDLES is classified as:


NORAD ID: 19059
Int'l Code: 1963-014EG
Perigee: 3,570.0 km
Apogee: 3,714.5 km
Inclination: 87.3 °
Period: 166.2 minutes
Semi major axis: 10013 km
RCS: 0.205 m2 (medium)
Launch date: May 9, 1963
Source: United States (US)
Launch site: AIR FORCE WESTERN TEST RANGE (AFWTR)
aabbcc
Your satellite tracking list
Your tracking list is empty




NASA's NSSDC Master Catalog

Two Line Element Set (TLE):
1 19059U 63014EG  19176.14642032 -.00000102  00000-0 -48506-1 0  9993
2 19059  87.3270  71.3516 0072160 123.5148 237.2627  8.66442836993036
Source of the keplerian elements: AFSPC